Find Starlink 30174

NORAD ID: 57609 Int'l Des: 2023-119 Owner: SPXS Country: US Constellation: starlink operational
LEOCIRCULAR

現在のビュー

3D地球を読み込み中...

About Starlink 30174

Starlink 30174 (NORAD 57609) is a starlink constellation satellite (v2 mini) launched Aug 11, 2023 by SPXS of US. It operates in LEO, CIRCULAR orbit with a mass of 730.00 kg.

Starlink 30174について

説明を読み込み中...

次回通過

Passes for default location (London). Set your location on the main map for personalized predictions.

高度履歴

Loading altitude history...

軌道要素

1 57609U 23119H 26170.45604827 -.00000146 00000-0 42294-5 0 9993
2 57609 43.0004 226.5623 0001367 273.6459 86.4237 15.27573583158650
Epoch: Jun 19, 2026 • Age: 20 hours

現在のステータス

高度 494.5 km
速度 7.62 km/s
衛星直下点 -40.80°S, 140.89°E
打ち上げ日 Aug 11, 2023
運用期間 2.8 years
タイプ internet

技術仕様

分類 Payload
質量 730.00 kg
乾燥質量 700.00 kg
総質量 730.00 kg
長さ 0.30 m
直径 4.10 m
スパン 29.00 m
形状 Box + pan
製造者 SPXS
バスタイプ Starlink V2M
フェーズステータス In Orbit
所有者/国 SPXS/US

Most Searched